• In Deutschland
  • Länderverzeichnis
  • Für 7 Tage
  • Wassertemperatur
  • Satellitenkarten
  • Wetterkarte
  • Widgets
  • user-avatar
    Anmelden

    Stündliche Wetter Einhausen

    Heute, 12 Dezember, Dienstag

    Zeit Temperatur Niederschläge Wind Luftdruck Luftfeuchtigkeit
    00:00 +4°C° 0 mm 6 m/S 732 mmHg 79%
    01:00 +4°C° 0 mm 6 m/S 733 mmHg 81%
    02:00 +3°C° 0,1 mm 6 m/S 734 mmHg 80%
    03:00 +2°C° 0,1 mm 7 m/S 736 mmHg 78%
    04:00 +2°C° 0,1 mm 7 m/S 737 mmHg 77%
    05:00 0°C° 0 mm 7 m/S 739 mmHg 77%
    06:00 +1°C° 0 mm 6 m/S 741 mmHg 78%
    07:00 +1°C° 0 mm 5 m/S 743 mmHg 80%
    08:00 +1°C° 0 mm 5 m/S 744 mmHg 80%
    09:00 +1°C° 0 mm 5 m/S 745 mmHg 79%
    10:00 +1°C° 0 mm 5 m/S 747 mmHg 79%
    11:00 +2°C° 0 mm 5 m/S 747 mmHg 78%
    12:00 +2°C° 0 mm 5 m/S 748 mmHg 77%
    13:00 +2°C° 0 mm 5 m/S 749 mmHg 76%
    14:00 +2°C° 0 mm 5 m/S 750 mmHg 77%
    15:00 +3°C° 0 mm 4 m/S 750 mmHg 77%
    16:00 +1°C° 0 mm 4 m/S 751 mmHg 77%
    17:00 +1°C° 0 mm 4 m/S 751 mmHg 79%
    18:00 +1°C° 0 mm 3 m/S 752 mmHg 80%
    19:00 +1°C° 0 mm 3 m/S 753 mmHg 82%
    20:00 +1°C° 0 mm 3 m/S 753 mmHg 83%
    21:00 0°C° 0 mm 3 m/S 754 mmHg 85%
    22:00 +1°C° 0 mm 2 m/S 754 mmHg 87%
    23:00 +1°C° 0 mm 2 m/S 755 mmHg 88%

    Morgen, 13 Dezember, Mittwoch

    Zeit Temperatur Niederschläge Wind Luftdruck Luftfeuchtigkeit
    00:00 +1°C° 0 mm 2 m/S 755 mmHg 89%
    01:00 -1°C° 0 mm 2 m/S 755 mmHg 91%
    02:00 -1°C° 0 mm 3 m/S 755 mmHg 91%
    03:00 0°C° 0 mm 3 m/S 755 mmHg 91%
    04:00 0°C° 0 mm 3 m/S 754 mmHg 91%
    05:00 0°C° 0 mm 3 m/S 754 mmHg 89%
    06:00 0°C° 0 mm 3 m/S 754 mmHg 88%
    07:00 -1°C° 0 mm 4 m/S 754 mmHg 86%
    08:00 0°C° 0 mm 4 m/S 753 mmHg 83%
    09:00 0°C° 0 mm 5 m/S 753 mmHg 79%
    10:00 +1°C° 0 mm 5 m/S 752 mmHg 76%
    11:00 +1°C° 0,1 mm 5 m/S 751 mmHg 74%
    12:00 +2°C° 0,1 mm 6 m/S 750 mmHg 72%
    13:00 +3°C° 0,1 mm 6 m/S 749 mmHg 70%
    14:00 +3°C° 0,7 mm 6 m/S 748 mmHg 73%
    15:00 +3°C° 0,7 mm 6 m/S 747 mmHg 76%
    16:00 +2°C° 0,7 mm 5 m/S 746 mmHg 79%
    17:00 +3°C° 0,8 mm 6 m/S 745 mmHg 80%
    18:00 +3°C° 0,8 mm 6 m/S 745 mmHg 82%
    19:00 +4°C° 0,8 mm 6 m/S 744 mmHg 83%
    20:00 +4°C° 0,1 mm 6 m/S 743 mmHg 83%
    21:00 +4°C° 0,1 mm 7 m/S 742 mmHg 84%
    22:00 +5°C° 0,1 mm 7 m/S 741 mmHg 84%
    23:00 +5°C° 0,4 mm 7 m/S 740 mmHg 83%

    übermorgen, 14 Dezember, Donnerstag

    Zeit Temperatur Niederschläge Wind Luftdruck Luftfeuchtigkeit
    00:00 +6°C° 0,4 mm 7 m/S 740 mmHg 83%
    01:00 +6°C° 0,4 mm 7 m/S 740 mmHg 83%
    02:00 +5°C° 0,5 mm 7 m/S 740 mmHg 80%
    03:00 +5°C° 0,5 mm 7 m/S 740 mmHg 77%
    04:00 +4°C° 0,5 mm 7 m/S 740 mmHg 74%
    05:00 +4°C° 0,2 mm 7 m/S 741 mmHg 71%
    06:00 +3°C° 0,2 mm 7 m/S 742 mmHg 69%
    07:00 +2°C° 0,2 mm 6 m/S 742 mmHg 66%
    08:00 +2°C° 0 mm 6 m/S 743 mmHg 67%
    09:00 +2°C° 0 mm 6 m/S 744 mmHg 67%
    10:00 +2°C° 0 mm 5 m/S 744 mmHg 67%
    11:00 +3°C° 0 mm 5 m/S 744 mmHg 67%
    12:00 +5°C° 0 mm 5 m/S 743 mmHg 68%
    13:00 +4°C° 0 mm 6 m/S 742 mmHg 68%
    14:00 +4°C° 0,5 mm 6 m/S 741 mmHg 72%
    15:00 +4°C° 0,5 mm 6 m/S 739 mmHg 77%
    16:00 +5°C° 0,5 mm 5 m/S 738 mmHg 82%
    17:00 +4°C° 2,4 mm 6 m/S 737 mmHg 82%
    18:00 +5°C° 2,4 mm 7 m/S 736 mmHg 81%
    19:00 +5°C° 2,4 mm 7 m/S 734 mmHg 81%
    20:00 +4°C° 0,7 mm 7 m/S 735 mmHg 79%
    21:00 +4°C° 0,7 mm 6 m/S 735 mmHg 78%
    22:00 +4°C° 0,7 mm 6 m/S 735 mmHg 76%
    23:00 +3°C° 0 mm 6 m/S 736 mmHg 76%

    15 Dezember, Freitag

    Zeit Temperatur Niederschläge Wind Luftdruck Luftfeuchtigkeit
    00:00 +2°C° 0 mm 6 m/S 737 mmHg 76%
    01:00 +1°C° 0 mm 6 m/S 739 mmHg 75%
    02:00 +1°C° 0 mm 5 m/S 739 mmHg 76%
    03:00 +1°C° 0 mm 5 m/S 740 mmHg 77%
    04:00 +1°C° 0 mm 4 m/S 740 mmHg 78%
    05:00 +1°C° 0,1 mm 4 m/S 740 mmHg 80%
    06:00 +1°C° 0,1 mm 4 m/S 740 mmHg 81%
    07:00 +1°C° 0,1 mm 4 m/S 741 mmHg 82%
    08:00 +2°C° 0,2 mm 5 m/S 741 mmHg 82%
    09:00 +2°C° 0,2 mm 5 m/S 741 mmHg 82%
    10:00 +2°C° 0,2 mm 5 m/S 741 mmHg 82%
    11:00 +2°C° 0,1 mm 5 m/S 741 mmHg 80%
    12:00 +3°C° 0,1 mm 5 m/S 741 mmHg 79%
    13:00 +3°C° 0,1 mm 5 m/S 741 mmHg 78%
    14:00 +3°C° 0,1 mm 5 m/S 741 mmHg 78%
    15:00 +3°C° 0,1 mm 5 m/S 741 mmHg 78%
    16:00 +4°C° 0,1 mm 4 m/S 741 mmHg 78%
    17:00 +4°C° 0,2 mm 4 m/S 741 mmHg 79%
    18:00 +3°C° 0,2 mm 3 m/S 741 mmHg 81%
    19:00 +3°C° 0,2 mm 3 m/S 742 mmHg 83%
    20:00 +3°C° 0,3 mm 3 m/S 742 mmHg 84%
    21:00 +3°C° 0,3 mm 3 m/S 743 mmHg 86%
    22:00 +3°C° 0,3 mm 3 m/S 743 mmHg 87%
    23:00 +2°C° 0,1 mm 3 m/S 744 mmHg 87%

    16 Dezember, Samstag

    Zeit Temperatur Niederschläge Wind Luftdruck Luftfeuchtigkeit
    00:00 +2°C° 0,1 mm 3 m/S 745 mmHg 88%
    01:00 +1°C° 0,1 mm 3 m/S 745 mmHg 88%
    02:00 +1°C° 0 mm 3 m/S 746 mmHg 89%
    03:00 0°C° 0 mm 3 m/S 747 mmHg 89%
    04:00 +1°C° 0 mm 2 m/S 747 mmHg 90%
    05:00 +1°C° 0 mm 2 m/S 748 mmHg 89%
    06:00 +1°C° 0 mm 2 m/S 748 mmHg 89%
    07:00 +1°C° 0 mm 2 m/S 749 mmHg 89%
    08:00 +1°C° 0,1 mm 3 m/S 749 mmHg 88%
    09:00 +1°C° 0,1 mm 3 m/S 750 mmHg 88%
    10:00 +1°C° 0,1 mm 3 m/S 750 mmHg 87%
    11:00 0°C° 0,1 mm 4 m/S 751 mmHg 86%
    12:00 +1°C° 0,1 mm 4 m/S 751 mmHg 84%
    13:00 +1°C° 0,1 mm 4 m/S 751 mmHg 83%
    14:00 +1°C° 0,1 mm 4 m/S 751 mmHg 83%
    15:00 +1°C° 0,1 mm 4 m/S 751 mmHg 83%
    16:00 +2°C° 0,1 mm 3 m/S 752 mmHg 83%
    17:00 +2°C° 0,1 mm 3 m/S 752 mmHg 85%
    18:00 +2°C° 0,1 mm 3 m/S 753 mmHg 86%
    19:00 +1°C° 0,1 mm 3 m/S 753 mmHg 87%
    20:00 +1°C° 0,1 mm 3 m/S 754 mmHg 88%
    21:00 +1°C° 0,1 mm 3 m/S 754 mmHg 88%
    22:00 +1°C° 0,1 mm 3 m/S 755 mmHg 89%
    23:00 0°C° 0 mm 3 m/S 755 mmHg 89%

    17 Dezember, Sonntag

    Zeit Temperatur Niederschläge Wind Luftdruck Luftfeuchtigkeit
    00:00 +1°C° 0 mm 2 m/S 755 mmHg 90%
    01:00 -1°C° 0 mm 2 m/S 756 mmHg 90%
    02:00 -1°C° 0 mm 2 m/S 756 mmHg 90%
    03:00 -1°C° 0 mm 2 m/S 756 mmHg 91%
    04:00 -1°C° 0 mm 2 m/S 756 mmHg 91%
    05:00 -1°C° 0 mm 2 m/S 757 mmHg 91%
    06:00 -1°C° 0 mm 2 m/S 757 mmHg 91%
    07:00 -1°C° 0 mm 2 m/S 758 mmHg 91%
    08:00 +1°C° 0 mm 2 m/S 758 mmHg 90%
    09:00 +1°C° 0 mm 2 m/S 759 mmHg 88%
    10:00 +2°C° 0 mm 2 m/S 759 mmHg 87%
    11:00 +2°C° 0 mm 2 m/S 760 mmHg 85%
    12:00 +2°C° 0 mm 3 m/S 760 mmHg 83%
    13:00 +2°C° 0 mm 3 m/S 760 mmHg 82%
    14:00 +3°C° 0 mm 2 m/S 760 mmHg 83%
    15:00 +3°C° 0 mm 2 m/S 760 mmHg 83%
    16:00 +3°C° 0 mm 2 m/S 761 mmHg 84%
    17:00 +2°C° 0 mm 2 m/S 761 mmHg 86%
    18:00 +2°C° 0 mm 2 m/S 762 mmHg 87%
    19:00 +2°C° 0 mm 2 m/S 762 mmHg 88%
    20:00 +1°C° 0 mm 2 m/S 762 mmHg 89%
    21:00 +1°C° 0 mm 2 m/S 763 mmHg 89%
    22:00 +2°C° 0 mm 1 m/S 763 mmHg 90%
    23:00 +1°C° 0 mm 1 m/S 763 mmHg 90%
    Mehr zeigen